Regional Weather Roundup
Issued by NWS Charleston, SC

Current Version | Previous Version | Graphics & Text | Print | Product List | Glossary On
Versions: 1 2 3 4 5 6 7 8 9 10 11 12 13 14 15 16 17 18 19 20 21 22 23 24 25 26 27 28 29 30 31 32 33 34 35 36 37 38 39 40 41 42 43 44 45 46 47 48 49 50
000 ASUS42 KCHS 161628 RWRCHS Regional Weather Roundup National Weather Service Charleston SC 1100 AM EST SAT DEC 16 2017 NOTE: "fair" indicates few or no clouds below 12,000 feet with no significant weather and/or obstructions to visibility. Not all stations are quality controlled. Use data with caution, especially dewpoint observations. SCZ027-030-031-034>040-042>050-161700- ...Southeast South Carolina... CITY SKY/WX TMP DP RH WIND PRES REMARKS N Charleston MOSUNNY 49 29 46 VRB5 30.32S Waterfront Prk N/A 47 33 58 VRB2 30.18R Mount Pleasant FAIR 48 32 53 N6 30.32F Johns Island FAIR 50 34 53 VRB5G12 30.32S Pinopolis N/A 43 30 61 E6 30.26R Moncks Corner FAIR 46 25 42 E3 30.32F Summerville FAIR 46 28 49 NE6 30.33F Beaufort MCAS CLOUDY 47 33 58 NE5 30.33S Beaufort Arpt FAIR 45 32 61 N5 30.32S HAZE Hilton Head Is SUNNY 46 32 57 N7 30.33S Walterboro MOSUNNY 46 30 53 CALM 30.32F Allendale FAIR 45 28 53 VRB3 30.31F ...Southern Midlands and Pee Dee... CITY SKY/WX TMP DP RH WIND PRES REMARKS Georgetown FAIR 46 23 39 NE6 30.34S Kingstree FAIR 45 23 42 E3 30.33F Orangeburg SUNNY 44 26 49 E6 30.33R Barnwell N/A 46 28 49 VRB5 30.32F Aiken FAIR 43 27 52 SE5 30.34F Manning FAIR 45 27 49 MISG 30.33F Columbia MOSUNNY 45 26 47 SE6 30.32S Sumter SUNNY 45 22 39 E6 30.30S Florence SUNNY 45 24 43 SE6 30.32F Myrtle Beach SUNNY 46 24 42 N9 30.34S N Myrtle Beach SUNNY 46 24 42 VRB7 30.32F $$ GAZ063-065-086>088-099>101-113>116-118-119-134>141-150-161700- ...Southeast Georgia... CITY SKY/WX TMP DP RH WIND PRES REMARKS Savannah Arpt CLOUDY 44 28 53 CALM 30.34R Hunter AAF MOSUNNY 45 27 48 CALM 30.31R Fort Stewart N/A 47 27 46 CALM N/A Statesboro MOSUNNY 46 26 45 S3 30.32F HAZE Sylvania CLOUDY 45 31 57 CALM 30.33S Claxton FAIR 47 30 51 CALM 30.33F ...CSRA, Central and far Southeast Georgia... CITY SKY/WX TMP DP RH WIND PRES REMARKS Thomson SUNNY 43 25 50 SW3 30.37S Augusta-Bush SUNNY 43 27 53 VRB3 30.33S Augusta-Daniel SUNNY 44 25 47 SE5 30.32S Swainsboro FAIR 43 28 56 CALM 30.33F Vidalia CLOUDY 46 30 53 CALM 30.32F Eastman FAIR 48 17 29 CALM 30.36S Hazlehurst FAIR 47 14 26 CALM 30.33S Alma SUNNY 49 28 44 VRB3 30.33S Waycross SUNNY 50 24 35 N3 30.33S Jesup FAIR 50 27 40 CALM 30.34 Baxley FAIR 45 28 53 E3 30.33S Brunswick SUNNY 50 27 40 N5 30.34R Saint Simons SUNNY 51 29 42 VRB6 30.32R $$ SCZ027-028-034-036>038-045-046-048>050-GAZ119-141-161700- ...Lake and Supplemental Coastal Observations... STATION/POSITION TIME TEMP WIND PRES WAVE SWELL AIR SEA DIR/SP/G HT/PER HT/PER/DIR (UTC) (F) (DEG/KT/KT) (MB) (FT/S) (FT/S/D) Winyah Bay 1545 44 60/ 9 1027.0S Lake Murray 1620 48 CALM / 3 1025.7F ACE Basin NERRS 1545 47 50/ 3 1027.0S Fort Pulaski NOT AVBL Sapelo Island 1600 49 10/ 7 1027.0 $$ ANZ835-935-AMZ111-154-330-350-352-354-370-450-454-472-161700- ...C-MAN and Buoy Observations... STATION/POSITION TIME TEMP WIND PRES WAVE SWELL AIR SEA DIR/SP/G HT/PER HT/PER/DIR (UTC) (F) (DEG/KT/KT) (MB) (FT/S) (FT/S/D) Buoy 41004 1610 53 72 40/ 8/ 12 1025.9 Buoy 41008 1550 47 58 30/ 10/ 12 1026.7R 2/11 Folly Beach CMAN 1600 46 40/ 11/ 14 1027.1S Capers Nearshore 1608 44 55 50/ 14/ 19 1026.2R STATION/POSITION TIME TEMP WIND PRES WAVE SWELL AIR SEA DIR/SP/G HT/PER HT/PER/DIR (UTC) (F) (DEG/KT/KT) (MB) (FT/S) (FT/S/D) 5E St. Marys GA 1600 62 N/A 2/ 4 Frying Pan Buoy 1610 47 68 10/ 12/ 17 1026.1 Buoy 41025 1610 44 72 330/ 10/ 14 1024.9 Cape Lookout NC 1600 340/ 7/ 10 1026.1S Buoy 41002 1550 64 74 340/ 12/ 16 1023.0R 7/ 7 5/310/ 7 Buoy 41010 NOT AVBL St Augustine FL 1600 56 62 10/ 12/ 13 1026.1S $$

USA.gov is the U.S. government's official web portal to all federal, state and local government web resources and services.